Location: *
(45.9500°N, 9.0833°E)
Time: 00:30:37
(UTC+00:00)

Tiros 1 despin weight - Pass Details

Date: 29 June 2021
Orbit: 593 x 642 km, 48.2° (Epoch: 02 August)

Event Time Altitude Azimuth Distance (km) Brightness Sun altitude
Rises 03:02:00 0° 256° (WSW) 2,849 - -5.4°
Exits shadow 03:02:51 - 256° (WSW) 2,511 ? -5.3°
Reaches altitude 10° 03:04:18 10° 257° (WSW) 1,940 ? -5.1°
Maximum altitude 03:08:46 81° 346° (NNW) 608 ? -4.6°
Drops below altitude 10° 03:13:11 10° 73° (ENE) 1,927 ? -4.0°
Sets 03:15:28 0° 75° (ENE) 2,828 ? -3.7°
